www.pogodaiklimat.ru

Погода и климат >> Архив погоды >> Египет >> Kosseir


ПОГОДА в Kosseir

  • Прогноз погоды в Kosseir
  • Монитор погоды в Kosseir
  • Климат города

АРХИВ ПОГОДЫ в Kosseir

Время (UTC), дата Ветер
(напр.,м/с)
 
Видим.   Явления Облачность Т
(С)
Тd
(С)
f
(%)
Тe
(С)
Тes
(С)
Комфортность P
(гПа)
Po
(гПа)
Тmin
(С)
Tmax
(С)
R
(мм)
R24
(мм)
S
(см)
09 11.08 С 8 10 км ясно +34.4 +20.7 45 +41 +46 опасность
перегрева
1003.0 1003.0
12 11.08 С 6 10 км ясно +35.2 +21.5 45 +43 +50 опасность
перегрева
1002.0 1002.0
18 11.08 С 1 10 км ясно +32.9 +18.7 43 +38 +38 очень
душно
1002.4 1002.0 +35.6
21 11.08 штиль 0 10 км ясно +30.5 +21.0 57 +38 +38 очень
душно
1002.6 1003.0
00 12.08 С 2 10 км ясно +31.6 +16.7 41 +35 +35 очень
душно
1001.6 1002.0
03 12.08 С 3 10 км ясно +30.6 +20.8 56 +38 +38 очень
душно
1002.2 1002.0
06 12.08 С 6 10 км ясно +31.6 +23.7 63 +43 +46 опасность
перегрева
1003.3 1003.0 +30.0
09 12.08 С 4 10 км ясно +32.1 +24.4 64 +45 +58 опасность
перегрева
1003.7 1004.0
12 12.08 С 1 10 км ясно +34.3 +19.9 43 +40 +58 опасность
солнечного
удара
1003.0 1003.0
15 12.08 С 5 10 км ясно +34.7 +16.5 34 +37 +38 очень
душно
1002.0 1002.0
18 12.08 штиль 0 10 км ясно +33.7 +12.7 28 +34 +34 очень
жарко
1003.8 1004.0 +35.3
21 12.08 штиль 0 10 км ясно +31.5 +18.3 45 +36 +36 очень
душно
1003.7 1004.0
00 13.08 штиль 0 10 км ясно +29.4 +16.6 46 +33 +33 душно 1003.0 1003.0
03 13.08 С 1 10 км ясно +30.6 +14.3 37 +32 +32 жарко 1003.0 1003.0
06 13.08 С 4 10 км ясно +32.2 +23.2 59 +43 +48 опасность
перегрева
1007.3 1007.0 +29.1
09 13.08 С 5 10 км ясно +32.8 +25.4 65 +47 +59 опасность
перегрева
1004.9 1005.0
12 13.08 С 1 10 км ясно +32.6 +24.6 63 +46 +65 опасность
перегрева
1004.2 1004.0
15 13.08 штиль 0 10 км ясно +33.8 +18.3 40 +38 +40 очень
душно
1003.4 1003.0
18 13.08 штиль 0 10 км ясно +32.2 +15.7 37 +35 +35 очень
душно
1004.6 1005.0 +34.2
21 13.08 штиль 0 10 км ясно +31.5 +10.2 27 +31 +31 жарко 1005.1 1005.0
00 14.08 штиль 0 10 км ясно +30.2 +6.1 22 +29 +29 жарко 1004.1 1004.0
03 14.08 штиль 0 10 км ясно +29.6 +16.1 44 +33 +33 душно 1004.8 1005.0
06 14.08 С 3 10 км ясно +32.7 +20.9 50 +40 +47 очень
душно
1006.2 1006.0 +28.4
09 14.08 С 3 10 км ясно +32.9 +24.4 61 +45 +62 опасность
перегрева
1006.6 1007.0
12 14.08 С 6 10 км ясно +34.1 +23.8 55 +45 +51 опасность
перегрева
1005.1 1005.0
15 14.08 С 3 10 км ясно +33.3 +20.5 47 +40 +41 очень
душно
1004.7 1005.0
18 14.08 штиль 0 10 км ясно +32.7 +12.9 30 +33 +33 жарко 1005.6 1006.0 +34.9
00 15.08 С 6 10 км ясно +33.2 +11.7 27 +33 +33 жарко 1004.2 1004.0
09 15.08 С 6 10 км ясно +32.3 +22.7 57 +42 +50 опасность
перегрева
1005.9 1006.0
12 15.08 С 5 10 км ясно +32.8 +22.9 56 +43 +52 опасность
перегрева
1003.7 1004.0
15 15.08 С 5 10 км ясно +32.7 +20.3 48 +39 +40 очень
душно
1002.6 1003.0
18 15.08 С 3 10 км ясно +31.8 +15.7 38 +34 +34 душно 1003.2 1003.0 +33.5
21 15.08 штиль 0 10 км ясно +29.8 +15.1 41 +32 +32 душно 1002.9 1003.0
00 16.08 СЗ 1 10 км ясно +30.3 +12.2 33 +31 +31 жарко 1001.8 1002.0
03 16.08 штиль 0 10 км ясно +28.3 +16.6 49 +32 +32 душно 1002.5 1003.0
06 16.08 С 5 10 км ясно +30.7 +22.3 61 +40 +44 очень
душно
1003.8 1004.0 +28.0
09 16.08 СЗ 3 10 км ясно +30.8 +23.7 66 +42 +59 опасность
перегрева
1004.3 1004.0
12 16.08 С 3 10 км ясно +31.0 +24.6 69 +44 +57 опасность
перегрева
1003.0 1003.0
15 16.08 штиль 0 10 км ясно +31.1 +23.5 64 +42 +44 опасность
перегрева
1002.1 1002.0
18 16.08 штиль 0 10 км ясно +29.7 +20.6 58 +37 +37 очень
душно
1003.6 1004.0 +31.9
21 16.08 штиль 0 10 км ясно +29.1 +18.2 52 +34 +34 очень
душно
1004.0 1004.0
00 17.08 Ю 1 10 км ясно +30.1 +12.5 34 +31 +31 жарко 1004.5 1005.0
06 17.08 С 3 10 км ясно +31.3 +21.2 55 +39 +45 очень
душно
1006.0 1006.0 +27.1
09 17.08 С 5 10 км ясно +31.9 +22.9 59 +42 +54 опасность
перегрева
1006.2 1006.0
12 17.08 СВ 2 10 км ясно +31.7 +24.1 64 +44 +58 опасность
перегрева
1005.5 1006.0
15 17.08 штиль 0 10 км ясно +30.2 +24.6 72 +43 +45 опасность
перегрева
1005.8 1006.0
18 17.08 штиль 0 10 км ясно +30.0 +21.7 61 +38 +38 очень
душно
1007.0 1007.0 +32.6
21 17.08 штиль 0 10 км ясно +28.9 +18.1 52 +34 +34 очень
душно
1007.4 1007.0
00 18.08 штиль 0 10 км ясно +28.5 +15.8 46 +32 +32 душно 1006.3 1006.0
03 18.08 штиль 0 10 км ясно +28.0 +13.9 42 +30 +30 жарко 1007.1 1007.0

 

Местоположение метеостанции Kosseir (Египет): широта 26.13 долгота 34.15 высота над уровнем моря 11 м.

В архиве по умолчанию представлена погода в Kosseir за последнюю неделю. Архивные данные за месяц целиком и за предыдущие месяцы, начиная с января 2011 года, Вы можете получить, выбрав интересующий диапазон дат из раскрывающегося списка и нажав кнопку "Ввод!".

Внимание! Время в таблицах - всемирное. Для получения местного времени необходимо прибавить поправку, которая в Kosseir равна 2 ч.

Смотрите также архив погоды в соседних городах и на ближайших метеорологических станциях:

Погода в Hurghada (Египет) (121 км)
Погода в South Of Valley University (Египет) (140 км)
Погода в Luxor (Египет) (154 км)
Погода в Al-Wajh (Саудовская Аравия) (233 км)
Погода в El Tor (Египет) (239 км)
Погода в Asswan (Египет) (277 км)
Погода в Abou Redis (Египет) (323 км)
Погода в Asyut (Египет) (328 км)
Погода в Tabuk (Саудовская Аравия) (348 км)
Погода в Shalatin (Египет) (364 км)

Пояснения к столбцам:

Ветер - указаны скорость ветра в м/с - средняя за 10 мин, порывы в срок и между сроками (в фигурных скобках) и направление, откуда дует ветер: С - северный, СВ - северо-восточный, В - восточный, ЮВ - юго-восточный, Ю - южный, ЮЗ - юго-западный, З - западный, СЗ - северо-западный.
Видимость - горизонтальная дальность видимости в метрах или километрах. При видимости от 1 до 10 км при отсутствии осадков обычно наблюдается дымка, при ухудшении видимости до 1 км и менее - туман. В сухую погоду видимость может ухудшаться дымом, пылью или мглою.
Явления - указаны атмосферные явления, наблюдавшиеся в срок или в последний час перед сроком; фигурными скобками обозначены явления, наблюдавшиеся между сроками (за 1-3 часа до срока); квадратными скобками обозначены град или гололедные отложения с указанием их диаметра в мм.
Облачность - указаны через наклонную черту общая и нижняя облачность в баллах и высота нижней границы облаков в метрах; квадратными скобками обозначены формы облаков: Ci - перистые, Cs - перисто-слоистые, Cc - перисто-кучевые, Ac - высококучевые, As - высокослоистые, Sc - слоисто-кучевые, Ns - слоисто-дождевые, Cu - кучевые, Cb - кучево-дождевые. Подробнее классификацию облаков см. в Атласе облаков (PDF).
T - Температура воздуха - температура, измеренная на высоте 2 м над землей.
Td - Температура точки росы - температура, при понижении до которой содержащийся в воздухе водяной пар достигнет насыщения.
f - Относительная влажность воздуха - влажноcть воздуха, измеренная на высоте 2 м над землей.
Te - Эффективная температура - температура, которую ощущает одетый по сезону человек в тени. Характеристика душности погоды. При расчете учитывается влияние влажности воздуха и скорости ветра на теплоощущения человека.
Tes - Эффективная температура на солнце - температура, которую ощущает человек, с поправкой на солнечный нагрев. Характеристика знойности погоды. Зависит от высоты солнца над горизонтом, облачности и скорости ветра. Ночью, в пасмурную погоду, а также при ветре 12 м/с и более поправка равна нулю.
P - Атмосферное давление - приведенное к уровню моря атмосферное давление.
Po - Атмосферное давление - измеренное на уровне метеостанции атмосферное давление.
Tmin - Минимальная температура - минимум температуры воздуха на высоте 2 м над землей.
Tmax - Максимальная температура - максимум температуры воздуха на высоте 2 м над землей.
R - Количество осадков - Количество выпавших осадков за период времени, мм. При наведении курсора мыши на число - период времени, за который выпало указанное количество осадков.
R24 - Количество осадков - Количество выпавших осадков за 24 часа, мм.
S - Снежный покров - Высота снежного покрова, см. При наведении курсора мыши на число - состояние снежного покрова и степень покрытия местности в баллах.